This is the latest recevied weather packets stored in our database for station/object WW5JC. If no packets are shown the sender has not sent any weather packets the latest 1 day(s).
| Time | Temp. | Humidity | Pressure | Rain* | Wind** | Luminosity | Snow |
|---|---|---|---|---|---|---|---|
| 1778011277 | 26.67° C | 78% | 1006.8 hPa | 0 mm | 4.02 m/s, 197° | 246 W/m² | - |
| 1778010973 | 26.67° C | 78% | 1006.4 hPa | 0 mm | 5.36 m/s, 203° | 238 W/m² | - |
| 1778010671 | 26.67° C | 78% | 1006.5 hPa | 0 mm | 3.58 m/s, 187° | 243 W/m² | - |
| 1778010369 | 26.67° C | 79% | 1006.7 hPa | 0 mm | 2.68 m/s, 250° | 205 W/m² | - |
| 1778010064 | 26.67° C | 78% | 1006.7 hPa | 0 mm | 2.68 m/s, 200° | 242 W/m² | - |
| 1778009761 | 26.67° C | 77% | 1006.6 hPa | 0 mm | 4.47 m/s, 197° | 296 W/m² | - |
| 1778009458 | 26.67° C | 79% | 1006.7 hPa | 0 mm | 2.24 m/s, 197° | 348 W/m² | - |
| 1778009157 | 26.67° C | 78% | 1006.5 hPa | 0 mm | 3.58 m/s, 182° | 365 W/m² | - |
| 1778008854 | 26.67° C | 78% | 1006.7 hPa | 0 mm | 4.02 m/s, 176° | 277 W/m² | - |
| 1778008552 | 27.22° C | 77% | 1006.6 hPa | 0 mm | 4.02 m/s, 181° | 259 W/m² | - |
| 1778008250 | 27.22° C | 76% | 1006.7 hPa | 0 mm | 2.68 m/s, 182° | 411 W/m² | - |
| 1778007949 | 27.22° C | 77% | 1006.5 hPa | 0 mm | 2.68 m/s, 199° | 383 W/m² | - |
| 1778007646 | 27.22° C | 75% | 1006.5 hPa | 0 mm | 4.92 m/s, 215° | 667 W/m² | - |
| 1778007343 | 26.67° C | 77% | 1006.8 hPa | 0 mm | 4.92 m/s, 212° | 828 W/m² | - |
| 1778007039 | 26.67° C | 78% | 1006.7 hPa | 0 mm | 3.58 m/s, 196° | 475 W/m² | - |
| 1778006736 | 26.67° C | 78% | 1006.8 hPa | 0 mm | 3.58 m/s, 205° | 784 W/m² | - |
| 1778006433 | 26.11° C | 79% | 1006.6 hPa | 0 mm | 4.92 m/s, 193° | 538 W/m² | - |
| 1778006129 | 26.11° C | 78% | 1006.9 hPa | 0 mm | 4.47 m/s, 202° | 272 W/m² | - |
| 1778005827 | 26.11° C | 78% | 1006.9 hPa | 0 mm | 4.92 m/s, 202° | 337 W/m² | - |
| 1778005523 | 26.67° C | 78% | 1007 hPa | 0 mm | 1.79 m/s, 199° | 314 W/m² | - |
| 1778005220 | 26.67° C | 77% | 1007.1 hPa | 0 mm | 2.24 m/s, 180° | 474 W/m² | - |
| 1778004911 | 26.11° C | 78% | 1006.6 hPa | 0 mm | 3.13 m/s, 179° | 726 W/m² | - |
| 1778004608 | 26.11° C | 78% | 1006.7 hPa | 0 mm | 4.47 m/s, 179° | 686 W/m² | - |
| 1778004303 | 25.56° C | 80% | 1006.8 hPa | 0 mm | 4.92 m/s, 188° | 801 W/m² | - |
| 1778004001 | 25.56° C | 79% | 1006.9 hPa | 0 mm | 7.15 m/s, 236° | 429 W/m² | - |
* Rain latest hour (hover to see other rain measurements)
** Current wind speed in m/s (hover to see current wind gust speed)